| time (UTC) | temp F | wind direction | speed MPH | gust MPH | rain 1hr in | rain 24hr in | rain mn in | humidity % | barometer mb |
| 20260509062746 | 73 | 42 | 1.0 | 1.0 | 0.00 | 0.00 | 0.00 | 91 | 1025.9 |
| 20260509062243 | 73 | 151 | 2.0 | 3.0 | 0.00 | 0.00 | 0.00 | 91 | 1025.9 |
| 20260509061740 | 73 | 131 | 1.0 | 1.0 | 0.00 | 0.00 | 0.00 | 91 | 1025.9 |
| 20260509061238 | 73 | 75 | 0.0 | 2.0 | 0.00 | 0.00 | 0.00 | 91 | 1025.8 |
| 20260509060735 | 73 | 83 | 1.0 | 1.0 | 0.00 | 0.00 | 0.00 | 91 | 1025.9 |
| 20260509060231 | 73 | 70 | 0.0 | 0.0 | 0.00 | 0.00 | 0.00 | 91 | 1025.9 |
| 20260509055727 | 73 | 106 | 0.0 | 1.0 | 0.00 | 0.00 | 0.00 | 91 | 1026.0 |
| 20260509055223 | 73 | 60 | 0.0 | 0.0 | 0.00 | 0.00 | 0.00 | 91 | 1026.1 |
| 20260509054720 | 73 | 68 | 0.0 | 0.0 | 0.00 | 0.00 | 0.00 | 91 | 1026.2 |
| 20260509054217 | 73 | 72 | 0.0 | 1.0 | 0.00 | 0.00 | 0.00 | 91 | 1026.4 |
| 20260509053716 | 73 | 91 | 0.0 | 1.0 | 0.00 | 0.00 | 0.00 | 92 | 1026.5 |
| 20260509053212 | 73 | 63 | 0.0 | 0.0 | 0.00 | 0.00 | 0.00 | 92 | 1026.6 |
| 20260509052710 | 73 | 69 | 0.0 | 1.0 | 0.00 | 0.00 | 0.00 | 92 | 1026.7 |
| 20260509052207 | 73 | 60 | 0.0 | 1.0 | 0.00 | 0.00 | 0.00 | 92 | 1026.4 |
| 20260509051705 | 72 | 74 | 0.0 | 1.0 | 0.00 | 0.00 | 0.00 | 92 | 1026.6 |
| 20260509051202 | 72 | 77 | 0.0 | 0.0 | 0.00 | 0.00 | 0.00 | 92 | 1026.7 |
| 20260509050659 | 72 | 86 | 0.0 | 1.0 | 0.00 | 0.00 | 0.00 | 92 | 1026.6 |
| 20260509050156 | 72 | 61 | 0.0 | 0.0 | 0.00 | 0.00 | 0.00 | 92 | 1026.5 |
| 20260509045653 | 72 | 81 | 0.0 | 0.0 | 0.00 | 0.00 | 0.00 | 92 | 1026.5 |
| 20260509045150 | 72 | 72 | 0.0 | 0.0 | 0.00 | 0.00 | 0.00 | 91 | 1026.5 |
| 20260509044647 | 72 | 74 | 0.0 | 0.0 | 0.00 | 0.00 | 0.00 | 91 | 1026.3 |
| 20260509044144 | 72 | 124 | 0.0 | 0.0 | 0.00 | 0.00 | 0.00 | 91 | 1026.2 |
| 20260509043641 | 72 | 76 | 0.0 | 0.0 | 0.00 | 0.00 | 0.00 | 90 | 1026.1 |
| 20260509043136 | 73 | 53 | 0.0 | 1.0 | 0.00 | 0.00 | 0.00 | 90 | 1026.1 |
| 20260509042633 | 73 | 66 | 0.0 | 0.0 | 0.00 | 0.00 | 0.00 | 90 | 1026.0 |
| 20260509042129 | 73 | 88 | 1.0 | 1.0 | 0.00 | 0.00 | 0.00 | 90 | 1026.0 |
| 20260509041626 | 73 | 62 | 0.0 | 1.0 | 0.00 | 0.00 | 0.00 | 89 | 1026.0 |
| 20260509041123 | 73 | 95 | 1.0 | 1.0 | 0.00 | 0.00 | 0.00 | 89 | 1025.8 |
| 20260509040622 | 73 | 82 | 1.0 | 1.0 | 0.00 | 0.00 | 0.00 | 88 | 1025.9 |
| 20260509040119 | 74 | 85 | 1.0 | 2.0 | 0.00 | 0.00 | 0.00 | 88 | 1025.9 |
| 20260509035615 | 74 | 73 | 1.0 | 2.0 | 0.00 | 0.00 | 0.00 | 88 | 1025.8 |
| 20260509035112 | 74 | 88 | 1.0 | 2.0 | 0.00 | 0.00 | 0.00 | 87 | 1025.8 |
| 20260509034610 | 74 | 88 | 1.0 | 2.0 | 0.00 | 0.00 | 0.00 | 87 | 1025.7 |
| 20260509034107 | 74 | 51 | 0.0 | 1.0 | 0.00 | 0.00 | 0.00 | 86 | 1025.8 |
| 20260509033604 | 74 | 91 | 1.0 | 3.0 | 0.00 | 0.00 | 0.00 | 86 | 1025.9 |
| 20260509033100 | 75 | 48 | 1.0 | 2.0 | 0.00 | 0.00 | 0.00 | 86 | 1025.9 |
| 20260509032558 | 75 | 90 | 0.0 | 1.0 | 0.00 | 0.00 | 0.00 | 85 | 1026.0 |
| 20260509032055 | 75 | 59 | 0.0 | 1.0 | 0.00 | 0.00 | 0.00 | 85 | 1025.8 |
| 20260509031553 | 75 | 98 | 1.0 | 2.0 | 0.00 | 0.00 | 0.00 | 85 | 1025.8 |
| 20260509031049 | 75 | 102 | 1.0 | 2.0 | 0.00 | 0.00 | 0.00 | 85 | 1025.8 |
| 20260509030548 | 75 | 88 | 1.0 | 4.0 | 0.00 | 0.00 | 0.00 | 85 | 1025.8 |
| 20260509030044 | 75 | 62 | 0.0 | 2.0 | 0.00 | 0.00 | 0.00 | 84 | 1025.8 |
| 20260509025540 | 75 | 62 | 0.0 | 2.0 | 0.00 | 0.00 | 0.00 | 85 | 1025.9 |
| 20260509025036 | 75 | 138 | 0.0 | 1.0 | 0.00 | 0.00 | 0.00 | 85 | 1025.9 |
| 20260509024532 | 75 | 71 | 0.0 | 1.0 | 0.00 | 0.00 | 0.00 | 85 | 1025.7 |
| 20260509024028 | 75 | 110 | 0.0 | 2.0 | 0.00 | 0.00 | 0.00 | 84 | 1025.5 |
| 20260509023526 | 75 | 66 | 0.0 | 1.0 | 0.00 | 0.00 | 0.00 | 84 | 1025.4 |
| 20260509023023 | 75 | 51 | 0.0 | 1.0 | 0.00 | 0.00 | 0.00 | 84 | 1025.3 |
| 20260509022519 | 75 | 73 | 0.0 | 1.0 | 0.00 | 0.00 | 0.00 | 84 | 1025.3 |
| 20260509022017 | 75 | 54 | 1.0 | 2.0 | 0.00 | 0.00 | 0.00 | 83 | 1025.1 |
| 20260509021514 | 76 | 128 | 3.0 | 3.0 | 0.00 | 0.00 | 0.00 | 83 | 1025.1 |
| 20260509021011 | 76 | 149 | 0.0 | 1.0 | 0.00 | 0.00 | 0.00 | 83 | 1025.1 |
| 20260509020509 | 75 | 31 | 0.0 | 1.0 | 0.00 | 0.00 | 0.00 | 83 | 1024.9 |
| 20260509020006 | 76 | 72 | 1.0 | 1.0 | 0.00 | 0.00 | 0.00 | 83 | 1024.8 |
| 20260509015505 | 76 | 91 | 0.0 | 1.0 | 0.00 | 0.00 | 0.00 | 82 | 1024.7 |
| 20260509015001 | 76 | 81 | 1.0 | 1.0 | 0.00 | 0.00 | 0.00 | 81 | 1024.7 |
| 20260509014458 | 76 | 77 | 0.0 | 1.0 | 0.00 | 0.00 | 0.00 | 81 | 1024.6 |
| 20260509013954 | 76 | 74 | 1.0 | 3.0 | 0.00 | 0.00 | 0.00 | 80 | 1024.7 |
| 20260509013451 | 76 | 71 | 0.0 | 1.0 | 0.00 | 0.00 | 0.00 | 80 | 1024.7 |
| 20260509012947 | 77 | 93 | 1.0 | 2.0 | 0.00 | 0.00 | 0.00 | 80 | 1024.7 |
| 20260509012444 | 77 | 91 | 0.0 | 1.0 | 0.00 | 0.00 | 0.00 | 80 | 1024.6 |
| 20260509011941 | 77 | 77 | 1.0 | 2.0 | 0.00 | 0.00 | 0.00 | 79 | 1024.6 |
| 20260509011438 | 77 | 19 | 2.0 | 3.0 | 0.00 | 0.00 | 0.00 | 79 | 1024.6 |
| 20260509010936 | 77 | 55 | 0.0 | 0.0 | 0.00 | 0.00 | 0.00 | 79 | 1024.5 |
| 20260509010433 | 77 | 84 | 1.0 | 2.0 | 0.00 | 0.00 | 0.00 | 79 | 1024.4 |
| 20260509005930 | 77 | 57 | 0.0 | 1.0 | 0.00 | 0.00 | 0.00 | 79 | 1024.5 |
| 20260509005429 | 77 | 101 | 1.0 | 2.0 | 0.00 | 0.00 | 0.00 | 78 | 1024.5 |
| 20260509004928 | 78 | 73 | 0.0 | 1.0 | 0.00 | 0.00 | 0.00 | 78 | 1024.4 |
| 20260509004425 | 78 | 45 | 1.0 | 1.0 | 0.00 | 0.00 | 0.00 | 78 | 1024.6 |
| 20260509003923 | 78 | 90 | 0.0 | 2.0 | 0.00 | 0.00 | 0.00 | 77 | 1024.5 |
| 20260509003420 | 78 | 80 | 0.0 | 1.0 | 0.00 | 0.00 | 0.00 | 77 | 1024.5 |
| 20260509002917 | 78 | 35 | 0.0 | 1.0 | 0.00 | 0.00 | 0.00 | 77 | 1024.5 |
| 20260509002415 | 78 | 55 | 0.0 | 1.0 | 0.00 | 0.00 | 0.00 | 76 | 1024.3 |
| 20260509001912 | 78 | 129 | 0.0 | 1.0 | 0.00 | 0.00 | 0.00 | 76 | 1024.4 |
| 20260509001408 | 78 | 98 | 1.0 | 2.0 | 0.00 | 0.00 | 0.00 | 76 | 1024.3 |
| 20260509000905 | 78 | 45 | 0.0 | 1.0 | 0.00 | 0.00 | 0.00 | 76 | 1024.5 |
| 20260509000403 | 79 | 51 | 1.0 | 3.0 | 0.00 | 0.00 | 0.00 | 76 | 1024.4 |
| 20260508235859 | 79 | 44 | 1.0 | 3.0 | 0.00 | 0.00 | 0.00 | 75 | 1024.4 |
| 20260508235356 | 79 | 196 | 1.0 | 2.0 | 0.00 | 0.00 | 0.00 | 75 | 1024.4 |
| 20260508234853 | 79 | 51 | 1.0 | 1.0 | 0.00 | 0.00 | 0.00 | 76 | 1024.5 |
| 20260508234350 | 78 | 83 | 1.0 | 2.0 | 0.00 | 0.00 | 0.00 | 76 | 1024.3 |
| 20260508233849 | 78 | 47 | 2.0 | 3.0 | 0.00 | 0.00 | 0.00 | 76 | 1024.4 |
| 20260508233347 | 78 | 45 | 0.0 | 1.0 | 0.00 | 0.00 | 0.00 | 76 | 1024.4 |
| 20260508232844 | 79 | 77 | 4.0 | 4.0 | 0.00 | 0.00 | 0.00 | 75 | 1024.3 |
| 20260508232340 | 80 | 21 | 2.0 | 2.0 | 0.00 | 0.00 | 0.00 | 73 | 1024.1 |
| 20260508231839 | 80 | 48 | 0.0 | 4.0 | 0.00 | 0.00 | 0.00 | 73 | 1024.4 |
| 20260508231334 | 80 | 92 | 2.0 | 2.0 | 0.00 | 0.00 | 0.00 | 72 | 1024.1 |
| 20260508230831 | 80 | 86 | 1.0 | 3.0 | 0.00 | 0.00 | 0.00 | 72 | 1024.1 |
| 20260508230327 | 80 | 52 | 1.0 | 1.0 | 0.00 | 0.00 | 0.00 | 72 | 1024.4 |
| 20260508225826 | 80 | 144 | 1.0 | 6.0 | 0.00 | 0.00 | 0.00 | 71 | 1024.5 |
| 20260508225322 | 80 | 72 | 0.0 | 1.0 | 0.00 | 0.00 | 0.00 | 72 | 1024.5 |
| 20260508224820 | 79 | 349 | 1.0 | 2.0 | 0.00 | 0.00 | 0.00 | 72 | 1024.7 |
| 20260508224317 | 80 | 155 | 1.0 | 3.0 | 0.00 | 0.00 | 0.00 | 72 | 1024.7 |
| 20260508223815 | 80 | 43 | 0.0 | 1.0 | 0.00 | 0.00 | 0.00 | 72 | 1024.7 |
| 20260508223312 | 80 | 60 | 0.0 | 1.0 | 0.00 | 0.00 | 0.00 | 71 | 1024.8 |
| 20260508222809 | 80 | 101 | 1.0 | 2.0 | 0.00 | 0.00 | 0.00 | 71 | 1024.9 |
| 20260508222306 | 80 | 84 | 0.0 | 2.0 | 0.00 | 0.00 | 0.00 | 70 | 1024.9 |
| 20260508221803 | 80 | 61 | 0.0 | 1.0 | 0.00 | 0.00 | 0.00 | 70 | 1024.8 |
| 20260508221258 | 80 | 59 | 2.0 | 3.0 | 0.00 | 0.00 | 0.00 | 70 | 1024.9 |
| 20260508220755 | 80 | 45 | 0.0 | 1.0 | 0.00 | 0.00 | 0.00 | 69 | 1024.9 |
| 20260508220252 | 81 | 93 | 0.0 | 2.0 | 0.00 | 0.00 | 0.00 | 69 | 1024.9 |
| 20260508215748 | 81 | 107 | 0.0 | 1.0 | 0.00 | 0.00 | 0.00 | 69 | 1025.0 |
| 20260508215245 | 81 | 51 | 1.0 | 2.0 | 0.00 | 0.00 | 0.00 | 68 | 1024.9 |
| 20260508214742 | 81 | 39 | 1.0 | 1.0 | 0.00 | 0.00 | 0.00 | 68 | 1024.9 |
| 20260508214239 | 80 | 87 | 1.0 | 1.0 | 0.00 | 0.00 | 0.00 | 69 | 1024.9 |
| 20260508213736 | 79 | 47 | 1.0 | 3.0 | 0.00 | 0.00 | 0.00 | 70 | 1024.9 |
| 20260508213232 | 79 | 143 | 3.0 | 4.0 | 0.00 | 0.00 | 0.00 | 70 | 1025.1 |
| 20260508212729 | 79 | 90 | 1.0 | 2.0 | 0.00 | 0.00 | 0.00 | 71 | 1025.2 |
| 20260508212225 | 79 | 80 | 0.0 | 1.0 | 0.00 | 0.00 | 0.00 | 71 | 1025.4 |
| 20260508211721 | 79 | 155 | 1.0 | 3.0 | 0.00 | 0.00 | 0.00 | 71 | 1025.3 |
| 20260508211217 | 80 | 93 | 1.0 | 1.0 | 0.00 | 0.00 | 0.00 | 69 | 1025.3 |
| 20260508210715 | 80 | 284 | 1.0 | 1.0 | 0.00 | 0.00 | 0.00 | 68 | 1025.4 |
| 20260508210211 | 80 | 65 | 0.0 | 2.0 | 0.00 | 0.00 | 0.00 | 68 | 1025.6 |
| 20260508205708 | 80 | 77 | 1.0 | 3.0 | 0.00 | 0.00 | 0.00 | 67 | 1025.6 |
| 20260508205205 | 80 | 73 | 0.0 | 1.0 | 0.00 | 0.00 | 0.00 | 66 | 1025.5 |
| 20260508204701 | 79 | 83 | 2.0 | 2.0 | 0.00 | 0.00 | 0.00 | 68 | 1025.5 |
| 20260508204157 | 78 | 47 | 0.0 | 2.0 | 0.00 | 0.00 | 0.00 | 70 | 1025.6 |
| 20260508203653 | 78 | 35 | 2.0 | 2.0 | 0.00 | 0.00 | 0.00 | 69 | 1025.6 |
| 20260508203150 | 78 | 131 | 2.0 | 3.0 | 0.00 | 0.00 | 0.00 | 68 | 1025.8 |
| 20260508202646 | 79 | 85 | 1.0 | 2.0 | 0.00 | 0.00 | 0.00 | 67 | 1025.9 |
| 20260508202143 | 78 | 64 | 1.0 | 3.0 | 0.00 | 0.00 | 0.00 | 68 | 1025.9 |
| 20260508201640 | 78 | 107 | 1.0 | 2.0 | 0.00 | 0.00 | 0.00 | 68 | 1025.8 |
| 20260508201136 | 78 | 105 | 3.0 | 4.0 | 0.00 | 0.00 | 0.00 | 67 | 1025.9 |
| 20260508200633 | 78 | 39 | 1.0 | 2.0 | 0.00 | 0.00 | 0.00 | 67 | 1026.1 |
| 20260508200129 | 78 | 78 | 1.0 | 1.0 | 0.00 | 0.00 | 0.00 | 68 | 1026.1 |
| 20260508195626 | 78 | 56 | 1.0 | 2.0 | 0.00 | 0.00 | 0.00 | 68 | 1026.2 |
| 20260508195123 | 77 | 88 | 1.0 | 2.0 | 0.00 | 0.00 | 0.00 | 68 | 1026.3 |
| 20260508194619 | 77 | 64 | 1.0 | 1.0 | 0.00 | 0.00 | 0.00 | 69 | 1026.4 |
| 20260508194116 | 77 | 94 | 1.0 | 2.0 | 0.00 | 0.00 | 0.00 | 68 | 1026.4 |
| 20260508193613 | 77 | 76 | 1.0 | 1.0 | 0.00 | 0.00 | 0.00 | 68 | 1026.3 |
| 20260508193110 | 77 | 70 | 0.0 | 3.0 | 0.00 | 0.00 | 0.00 | 69 | 1026.3 |
| 20260508192606 | 77 | 173 | 1.0 | 1.0 | 0.00 | 0.00 | 0.00 | 68 | 1026.2 |
| 20260508192104 | 77 | 86 | 0.0 | 3.0 | 0.00 | 0.00 | 0.00 | 68 | 1026.4 |
| 20260508191600 | 77 | 65 | 0.0 | 1.0 | 0.00 | 0.00 | 0.00 | 67 | 1026.4 |
| 20260508191057 | 77 | 51 | 1.0 | 2.0 | 0.00 | 0.00 | 0.00 | 67 | 1026.4 |
| 20260508190554 | 76 | 139 | 0.0 | 1.0 | 0.00 | 0.00 | 0.00 | 68 | 1026.5 |
| 20260508190050 | 76 | 60 | 0.0 | 1.0 | 0.00 | 0.00 | 0.00 | 68 | 1026.8 |
| 20260508185548 | 76 | 62 | 0.0 | 1.0 | 0.00 | 0.00 | 0.00 | 67 | 1026.9 |
| 20260508185045 | 76 | 78 | 1.0 | 1.0 | 0.00 | 0.00 | 0.00 | 68 | 1026.9 |
| 20260508184543 | 75 | 105 | 1.0 | 1.0 | 0.00 | 0.00 | 0.00 | 70 | 1027.0 |
| 20260508184039 | 74 | 69 | 0.0 | 1.0 | 0.00 | 0.00 | 0.00 | 70 | 1027.0 |
| 20260508183536 | 75 | 56 | 0.0 | 1.0 | 0.00 | 0.00 | 0.00 | 69 | 1027.0 |
| 20260508183032 | 74 | 114 | 0.0 | 1.0 | 0.00 | 0.00 | 0.00 | 69 | 1027.2 |
| 20260508182529 | 74 | 67 | 0.0 | 0.0 | 0.00 | 0.00 | 0.00 | 70 | 1027.3 |
| 20260508182025 | 73 | 100 | 0.0 | 1.0 | 0.00 | 0.00 | 0.00 | 70 | 1027.3 |
| 20260508181520 | 72 | 60 | 0.0 | 1.0 | 0.00 | 0.00 | 0.00 | 71 | 1027.5 |
| 20260508181019 | 72 | 74 | 0.0 | 1.0 | 0.00 | 0.00 | 0.00 | 73 | 1027.5 |
| 20260508180515 | 72 | 66 | 0.0 | 2.0 | 0.00 | 0.00 | 0.00 | 73 | 1027.6 |
| 20260508180011 | 72 | 64 | 1.0 | 2.0 | 0.00 | 0.00 | 0.00 | 72 | 1027.6 |
| 20260508175508 | 72 | 57 | 0.0 | 1.0 | 0.00 | 0.00 | 0.00 | 71 | 1027.7 |
| 20260508175005 | 72 | 67 | 0.0 | 1.0 | 0.00 | 0.00 | 0.00 | 71 | 1027.8 |
| 20260508174502 | 72 | 120 | 0.0 | 1.0 | 0.00 | 0.00 | 0.00 | 71 | 1027.8 |
| 20260508173959 | 72 | 63 | 0.0 | 1.0 | 0.00 | 0.00 | 0.00 | 70 | 1027.8 |
| 20260508173456 | 73 | 69 | 0.0 | 1.0 | 0.00 | 0.00 | 0.00 | 69 | 1027.6 |
| 20260508172952 | 72 | 68 | 0.0 | 1.0 | 0.00 | 0.00 | 0.00 | 70 | 1027.8 |
| 20260508172449 | 71 | 66 | 1.0 | 2.0 | 0.00 | 0.00 | 0.00 | 71 | 1027.9 |
| 20260508171946 | 72 | 63 | 1.0 | 2.0 | 0.00 | 0.00 | 0.00 | 70 | 1027.9 |
| 20260508171443 | 71 | 61 | 0.0 | 1.0 | 0.00 | 0.00 | 0.00 | 70 | 1027.8 |
| 20260508170939 | 71 | 73 | 2.0 | 3.0 | 0.00 | 0.00 | 0.00 | 71 | 1027.9 |
| 20260508170437 | 71 | 34 | 2.0 | 2.0 | 0.00 | 0.00 | 0.00 | 71 | 1027.9 |
| 20260508165933 | 71 | 52 | 1.0 | 3.0 | 0.00 | 0.00 | 0.00 | 70 | 1027.9 |
| 20260508165431 | 71 | 66 | 0.0 | 1.0 | 0.00 | 0.00 | 0.00 | 72 | 1028.0 |
| 20260508164926 | 70 | 42 | 1.0 | 1.0 | 0.00 | 0.00 | 0.00 | 71 | 1028.1 |
| 20260508164424 | 70 | 69 | 0.0 | 2.0 | 0.00 | 0.00 | 0.00 | 73 | 1028.3 |
| 20260508163921 | 70 | 29 | 0.0 | 1.0 | 0.00 | 0.00 | 0.00 | 72 | 1028.1 |
| 20260508163419 | 69 | 85 | 1.0 | 2.0 | 0.00 | 0.00 | 0.00 | 74 | 1028.1 |
| 20260508162914 | 69 | 55 | 0.0 | 1.0 | 0.00 | 0.00 | 0.00 | 73 | 1028.3 |
| 20260508162412 | 69 | 60 | 1.0 | 2.0 | 0.00 | 0.00 | 0.00 | 72 | 1028.3 |
| 20260508161908 | 69 | 49 | 1.0 | 2.0 | 0.00 | 0.00 | 0.00 | 74 | 1028.2 |
| 20260508161406 | 69 | 64 | 1.0 | 2.0 | 0.00 | 0.00 | 0.00 | 74 | 1028.3 |
| 20260508160903 | 69 | 61 | 2.0 | 3.0 | 0.00 | 0.00 | 0.00 | 73 | 1028.6 |
| 20260508160402 | 68 | 62 | 0.0 | 1.0 | 0.00 | 0.00 | 0.00 | 75 | 1028.5 |
| 20260508155857 | 68 | 68 | 1.0 | 2.0 | 0.00 | 0.00 | 0.00 | 74 | 1028.6 |
| 20260508155355 | 68 | 68 | 0.0 | 1.0 | 0.00 | 0.00 | 0.00 | 74 | 1028.8 |
| 20260508154852 | 68 | 60 | 0.0 | 1.0 | 0.00 | 0.00 | 0.00 | 75 | 1028.9 |
| 20260508154349 | 67 | 64 | 0.0 | 1.0 | 0.00 | 0.00 | 0.00 | 75 | 1028.8 |
| 20260508153845 | 67 | 48 | 1.0 | 1.0 | 0.00 | 0.00 | 0.00 | 75 | 1028.8 |
| 20260508153343 | 67 | 51 | 1.0 | 3.0 | 0.00 | 0.00 | 0.00 | 76 | 1028.8 |
| 20260508152839 | 67 | 14 | 1.0 | 2.0 | 0.00 | 0.00 | 0.00 | 75 | 1028.8 |
| 20260508152335 | 66 | 60 | 0.0 | 3.0 | 0.00 | 0.00 | 0.00 | 76 | 1028.7 |
| 20260508151832 | 66 | 57 | 1.0 | 2.0 | 0.00 | 0.00 | 0.00 | 77 | 1029.2 |
| 20260508151329 | 65 | 92 | 0.0 | 1.0 | 0.00 | 0.00 | 0.00 | 78 | 1029.4 |
| 20260508150825 | 65 | 32 | 1.0 | 2.0 | 0.00 | 0.00 | 0.00 | 78 | 1029.3 |
| 20260508150322 | 64 | 103 | 1.0 | 1.0 | 0.00 | 0.00 | 0.00 | 79 | 1029.3 |
| 20260508145818 | 64 | 50 | 0.0 | 1.0 | 0.00 | 0.00 | 0.00 | 79 | 1029.4 |
| 20260508145314 | 64 | 49 | 1.0 | 2.0 | 0.00 | 0.00 | 0.00 | 79 | 1029.6 |
| 20260508144811 | 64 | 43 | 1.0 | 2.0 | 0.00 | 0.00 | 0.00 | 79 | 1029.7 |
| 20260508144309 | 64 | 47 | 1.0 | 2.0 | 0.00 | 0.00 | 0.00 | 79 | 1029.2 |
| 20260508143807 | 64 | 57 | 2.0 | 2.0 | 0.00 | 0.00 | 0.00 | 79 | 1029.4 |
| 20260508143303 | 64 | 61 | 1.0 | 3.0 | 0.00 | 0.00 | 0.00 | 79 | 1029.5 |
| 20260508142800 | 64 | 43 | 1.0 | 2.0 | 0.00 | 0.00 | 0.00 | 79 | 1029.6 |
| 20260508142257 | 64 | 38 | 1.0 | 2.0 | 0.00 | 0.00 | 0.00 | 79 | 1029.5 |
| 20260508141753 | 64 | 54 | 2.0 | 4.0 | 0.00 | 0.00 | 0.00 | 79 | 1029.4 |
| 20260508141251 | 64 | 13 | 2.0 | 3.0 | 0.00 | 0.00 | 0.00 | 79 | 1029.6 |
| 20260508140748 | 64 | 50 | 1.0 | 2.0 | 0.00 | 0.00 | 0.00 | 80 | 1029.4 |
| 20260508140245 | 63 | 43 | 1.0 | 1.0 | 0.00 | 0.00 | 0.00 | 80 | 1029.3 |
| 20260508135741 | 63 | 31 | 1.0 | 2.0 | 0.00 | 0.00 | 0.00 | 80 | 1029.2 |
| 20260508135237 | 63 | 61 | 2.0 | 2.0 | 0.00 | 0.00 | 0.00 | 80 | 1029.0 |
| 20260508134732 | 63 | 46 | 1.0 | 2.0 | 0.00 | 0.00 | 0.00 | 80 | 1029.2 |
| 20260508134230 | 63 | 26 | 2.0 | 3.0 | 0.00 | 0.00 | 0.00 | 80 | 1029.2 |
| 20260508133726 | 63 | 51 | 1.0 | 2.0 | 0.00 | 0.00 | 0.00 | 81 | 1029.3 |
| 20260508133224 | 63 | 41 | 1.0 | 3.0 | 0.00 | 0.00 | 0.00 | 81 | 1029.4 |
| 20260508132722 | 63 | 57 | 0.0 | 1.0 | 0.00 | 0.00 | 0.00 | 81 | 1029.4 |
| 20260508132220 | 63 | 51 | 1.0 | 2.0 | 0.00 | 0.00 | 0.00 | 81 | 1029.4 |
| 20260508131714 | 63 | 43 | 1.0 | 2.0 | 0.00 | 0.00 | 0.00 | 82 | 1029.5 |
| 20260508131212 | 62 | 44 | 2.0 | 2.0 | 0.00 | 0.00 | 0.00 | 82 | 1029.4 |
| 20260508130708 | 62 | 29 | 1.0 | 2.0 | 0.00 | 0.00 | 0.00 | 83 | 1029.5 |
| 20260508130205 | 62 | 49 | 0.0 | 1.0 | 0.00 | 0.00 | 0.00 | 83 | 1029.4 |
| 20260508125700 | 62 | 52 | 0.0 | 1.0 | 0.00 | 0.00 | 0.00 | 83 | 1029.5 |
| 20260508125157 | 62 | 35 | 1.0 | 2.0 | 0.00 | 0.00 | 0.00 | 84 | 1029.6 |
| 20260508124655 | 62 | 47 | 0.0 | 2.0 | 0.00 | 0.00 | 0.00 | 83 | 1029.6 |
| 20260508124152 | 62 | 23 | 2.0 | 4.0 | 0.00 | 0.00 | 0.00 | 83 | 1029.6 |
| 20260508123651 | 62 | 42 | 1.0 | 3.0 | 0.00 | 0.00 | 0.00 | 83 | 1029.5 |
| 20260508123148 | 62 | 0 | 2.0 | 4.0 | 0.00 | 0.00 | 0.00 | 83 | 1029.7 |
| 20260508122644 | 62 | 41 | 2.0 | 4.0 | 0.00 | 0.00 | 0.00 | 82 | 1029.3 |
| 20260508122141 | 62 | 39 | 1.0 | 3.0 | 0.00 | 0.00 | 0.00 | 82 | 1029.3 |
| 20260508121639 | 62 | 41 | 1.0 | 2.0 | 0.00 | 0.00 | 0.00 | 81 | 1029.3 |
| 20260508121137 | 62 | 31 | 2.0 | 3.0 | 0.00 | 0.00 | 0.00 | 81 | 1029.3 |
| 20260508120634 | 62 | 22 | 1.0 | 2.0 | 0.00 | 0.00 | 0.00 | 81 | 1028.9 |
| 20260508120132 | 62 | 45 | 1.0 | 1.0 | 0.00 | 0.00 | 0.00 | 81 | 1028.8 |
| 20260508115630 | 62 | 51 | 1.0 | 4.0 | 0.00 | 0.00 | 0.00 | 81 | 1028.8 |
| 20260508115126 | 62 | 37 | 1.0 | 2.0 | 0.00 | 0.00 | 0.00 | 82 | 1029.0 |
| 20260508114623 | 62 | 35 | 2.0 | 3.0 | 0.00 | 0.00 | 0.00 | 81 | 1029.0 |
| 20260508114119 | 62 | 38 | 1.0 | 2.0 | 0.00 | 0.00 | 0.00 | 81 | 1029.2 |
| 20260508113617 | 63 | 30 | 1.0 | 6.0 | 0.00 | 0.00 | 0.00 | 80 | 1029.3 |
| 20260508113115 | 63 | 25 | 2.0 | 3.0 | 0.00 | 0.00 | 0.00 | 79 | 1029.4 |
| 20260508112610 | 63 | 82 | 1.0 | 2.0 | 0.00 | 0.00 | 0.00 | 78 | 1029.5 |
| 20260508112108 | 63 | 52 | 1.0 | 2.0 | 0.00 | 0.00 | 0.00 | 77 | 1029.7 |
| 20260508111605 | 63 | 26 | 2.0 | 2.0 | 0.00 | 0.00 | 0.00 | 77 | 1030.0 |
| 20260508111102 | 63 | 357 | 3.0 | 3.0 | 0.00 | 0.00 | 0.00 | 76 | 1030.3 |
| 20260508110600 | 63 | 34 | 3.0 | 3.0 | 0.00 | 0.00 | 0.00 | 76 | 1030.2 |
| 20260508110055 | 63 | 35 | 2.0 | 4.0 | 0.00 | 0.00 | 0.00 | 76 | 1030.2 |
| 20260508105550 | 63 | 1 | 3.0 | 4.0 | 0.00 | 0.00 | 0.00 | 77 | 1030.0 |
| 20260508105048 | 63 | 36 | 2.0 | 2.0 | 0.00 | 0.00 | 0.00 | 78 | 1029.8 |
| 20260508104546 | 63 | 35 | 2.0 | 2.0 | 0.00 | 0.00 | 0.00 | 78 | 1029.7 |
| 20260508104042 | 63 | 54 | 0.0 | 4.0 | 0.00 | 0.00 | 0.00 | 78 | 1029.7 |
| 20260508103539 | 63 | 45 | 2.0 | 2.0 | 0.00 | 0.00 | 0.00 | 79 | 1029.5 |
| 20260508103036 | 63 | 27 | 1.0 | 2.0 | 0.00 | 0.00 | 0.00 | 78 | 1029.5 |
| 20260508102534 | 62 | 48 | 0.0 | 2.0 | 0.00 | 0.00 | 0.00 | 79 | 1029.5 |
| 20260508102032 | 62 | 53 | 1.0 | 2.0 | 0.00 | 0.00 | 0.00 | 79 | 1029.4 |
| 20260508101529 | 62 | 45 | 0.0 | 4.0 | 0.00 | 0.00 | 0.00 | 79 | 1029.2 |
| 20260508101026 | 62 | 62 | 0.0 | 1.0 | 0.00 | 0.00 | 0.00 | 79 | 1029.2 |
| 20260508100524 | 63 | 32 | 1.0 | 1.0 | 0.00 | 0.00 | 0.00 | 79 | 1028.9 |
| 20260508100021 | 63 | 55 | 0.0 | 1.0 | 0.00 | 0.00 | 0.00 | 78 | 1029.0 |
| 20260508095518 | 63 | 29 | 1.0 | 2.0 | 0.00 | 0.00 | 0.00 | 78 | 1029.2 |
| 20260508095014 | 63 | 55 | 0.0 | 1.0 | 0.00 | 0.00 | 0.00 | 77 | 1028.9 |
| 20260508094512 | 63 | 54 | 0.0 | 1.0 | 0.00 | 0.00 | 0.00 | 77 | 1028.9 |
| 20260508094008 | 63 | 111 | 1.0 | 2.0 | 0.00 | 0.00 | 0.00 | 76 | 1029.0 |
| 20260508093505 | 63 | 342 | 4.0 | 6.0 | 0.00 | 0.00 | 0.00 | 76 | 1029.8 |
| 20260508093003 | 63 | 61 | 1.0 | 2.0 | 0.00 | 0.00 | 0.00 | 77 | 1029.3 |
| 20260508092500 | 63 | 331 | 1.0 | 3.0 | 0.00 | 0.00 | 0.00 | 77 | 1028.7 |
| 20260508091959 | 63 | 106 | 1.0 | 2.0 | 0.00 | 0.00 | 0.00 | 77 | 1029.7 |
| 20260508091455 | 63 | 216 | 3.0 | 3.0 | 0.00 | 0.00 | 0.00 | 76 | 1030.2 |
| 20260508090953 | 63 | 59 | 0.0 | 1.0 | 0.00 | 0.00 | 0.00 | 76 | 1029.7 |
| 20260508090451 | 63 | 45 | 0.0 | 1.0 | 0.00 | 0.00 | 0.00 | 75 | 1029.8 |
| 20260508085947 | 63 | 61 | 1.0 | 1.0 | 0.00 | 0.00 | 0.00 | 76 | 1029.9 |
| 20260508085443 | 63 | 56 | 2.0 | 2.0 | 0.00 | 0.00 | 0.00 | 76 | 1029.7 |
| 20260508084940 | 63 | 25 | 1.0 | 2.0 | 0.00 | 0.00 | 0.00 | 76 | 1029.4 |
| 20260508084437 | 63 | 48 | 0.0 | 1.0 | 0.00 | 0.00 | 0.00 | 76 | 1029.6 |
| 20260508083935 | 63 | 44 | 1.0 | 2.0 | 0.00 | 0.00 | 0.00 | 76 | 1029.5 |
| 20260508083432 | 63 | 14 | 2.0 | 3.0 | 0.00 | 0.00 | 0.00 | 76 | 1029.7 |
| 20260508082932 | 63 | 29 | 2.0 | 3.0 | 0.00 | 0.00 | 0.00 | 77 | 1029.0 |
| 20260508082429 | 63 | 38 | 0.0 | 1.0 | 0.00 | 0.00 | 0.00 | 77 | 1028.8 |
| 20260508081927 | 63 | 70 | 1.0 | 3.0 | 0.00 | 0.00 | 0.00 | 76 | 1029.4 |
| 20260508081424 | 63 | 55 | 0.0 | 1.0 | 0.00 | 0.00 | 0.00 | 76 | 1029.7 |
| 20260508080920 | 63 | 61 | 0.0 | 2.0 | 0.00 | 0.00 | 0.00 | 76 | 1029.9 |
| 20260508080419 | 63 | 80 | 0.0 | 1.0 | 0.00 | 0.00 | 0.00 | 76 | 1030.0 |
| 20260508075915 | 64 | 53 | 0.0 | 2.0 | 0.00 | 0.00 | 0.00 | 75 | 1029.8 |
| 20260508075412 | 64 | 45 | 0.0 | 2.0 | 0.00 | 0.00 | 0.00 | 73 | 1029.9 |
| 20260508074910 | 64 | 52 | 0.0 | 2.0 | 0.00 | 0.00 | 0.00 | 71 | 1030.1 |
| 20260508074407 | 64 | 39 | 1.0 | 2.0 | 0.00 | 0.00 | 0.00 | 71 | 1030.2 |
| 20260508073904 | 64 | 49 | 1.0 | 2.0 | 0.00 | 0.00 | 0.00 | 71 | 1030.3 |
| 20260508073402 | 64 | 40 | 2.0 | 3.0 | 0.00 | 0.00 | 0.00 | 71 | 1030.1 |
| 20260508072858 | 64 | 38 | 1.0 | 2.0 | 0.00 | 0.00 | 0.00 | 71 | 1030.1 |
| 20260508072354 | 64 | 42 | 1.0 | 2.0 | 0.00 | 0.00 | 0.00 | 71 | 1030.0 |
| 20260508071851 | 64 | 43 | 0.0 | 1.0 | 0.00 | 0.00 | 0.00 | 71 | 1030.2 |
| 20260508071350 | 64 | 44 | 0.0 | 1.0 | 0.00 | 0.00 | 0.00 | 71 | 1030.3 |
| 20260508070847 | 64 | 60 | 0.0 | 1.0 | 0.00 | 0.00 | 0.00 | 72 | 1030.4 |
| 20260508070345 | 64 | 49 | 0.0 | 1.0 | 0.00 | 0.00 | 0.00 | 72 | 1030.5 |
| 20260508065843 | 64 | 43 | 1.0 | 2.0 | 0.00 | 0.00 | 0.00 | 72 | 1030.4 |
| 20260508065341 | 64 | 54 | 1.0 | 2.0 | 0.00 | 0.00 | 0.00 | 72 | 1030.3 |
| 20260508064839 | 64 | 31 | 2.0 | 2.0 | 0.00 | 0.00 | 0.00 | 72 | 1030.1 |
| 20260508064336 | 64 | 50 | 0.0 | 3.0 | 0.00 | 0.00 | 0.00 | 72 | 1029.4 |
| 20260508063833 | 64 | 48 | 2.0 | 6.0 | 0.00 | 0.00 | 0.00 | 71 | 1029.4 |
| 20260508063331 | 64 | 53 | 0.0 | 3.0 | 0.00 | 0.00 | 0.00 | 72 | 1029.7 |